Location: Azul
(36.7830°S, 59.8500°W)
Time: 10:26:56
(UTC-03:00)

DOVE 4 - Pass Details

Date: 29 October 2021
Orbit: 588 x 799 km, 97.8° (Epoch: 07 December)

Event Time Altitude Azimuth Distance (km) Brightness Sun altitude
Exits shadow 01:19:38 15° 216° (SW) 2,065 ? -39.0°
Drops below altitude 10° 01:20:38 10° 210° (SSW) 2,404 ? -38.9°
Sets 01:23:11 0° 201° (SSW) 3,340 ? -38.8°
